Погода в Зилаире

Погода в Зилаире : погода сейчас, прогноз погоды и архив. Всё, что Вы хотите узнать о погоде в Зилаире!

Поиск расширенной информации на нашем сайте:

Другие новости

Новости СМИ2

Главная страница сайта

Новости сайта

03.07.2017

Напоминаем, что на нашем специализированном сайте Метеоцентр.Азия вы можете получить высокодетализированные автоматические прогнозы погоды по пунктам России, СНГ и мира в авиационном формате (включающие направление и скорость ветра, видимость, явления погоды, количество и форму облачности, нижнюю и верхнюю границу облачности).


Погода в Зилаире - сегодня

Время (UTC), дата Ветер
(°,м/с) 
Видим.   Явления Облачность Т
(°С)
Тd
(°С)
f(%) Тe
(°С)
Pmin
(гПа)
dP
(гПа)
Po
(мм)
O2
(г/м3)
Тmin Tmax R s Состояние
почвы
09 17.09.17 330 (СЗ) 20000 м    5/0 верхняя 
[Ci fib]
+20.9 +0.7 26 +21  1018.6  -0.3  719  269           
12 17.09.17 330 (СЗ) 20000 м    8/0 верхняя 
[Cs]
+19.1 +2.9 34 +20  1018.8  -0.1  719  270           
18 17.09.17 тихо ()   10 км    ясно 
+7.3 +5.3 87 +7  1022.1  0.4  720  282           
21 17.09.17 тихо ()   4000 м  дымка  ясно 
+4.7 +3.8 94 +5  1022.7  720  284           
00 18.09.17 тихо ()   4000 м  дымка  ясно 
+2.4 +1.7 95 +2  1023.9  0.6  720  287           
03 18.09.17 020 (С) 4000 м  дымка  8/0 верхняя 
[Cs]
+1.5 +0.7 94 +2  1024.4  0.2  720  289  +1.3        сухая 
06 18.09.17 310 (СЗ) 20000 м    6/0 верхняя 
[Cs]
+14.5 +6.6 59 +16  1022.3  0.9  721  275           
09 18.09.17 330 (СЗ) 20000 м    6/3 600 м верхняя 
[Sc|Ci fib]
+17.7 +3.2 38 +18  1021.1  -0.5  721  272           
12 18.09.17 310 (СЗ) 20000 м    3/0 верхняя 
[Ci fib]
+17.9 +3 37 +18  1020.8  -0.3  721  272           
18 18.09.17 тихо ()   10 км    ясно 
+8 +6.1 88 +8  1024.4  0.9  722  281           
21 18.09.17 030 (СВ) 4000 м  дымка  ясно 
+6 +5.1 94 +7  1025  0.1  722  284           
00 19.09.17 тихо ()   4000 м  дымка  ясно 
+4.6 +3.7 94 +5  1026.2  0.8  722  286           
03 19.09.17 тихо ()   4000 м  дымка  8/0 верхняя 
[Cs]
+4.2 +3.2 93 +4  1026.6  0.3  722  286  +3.7        сухая 
06 19.09.17 210 (ЮЗ) 20000 м    8/0 верхняя 
[Cs]
+17.3 +6.5 49 +18  1024.4  0.8  723  273           
09 19.09.17 230 (ЮЗ) 20000 м    9/0 верхняя 
[Cs]
+22 +5 33 +22  1023  -0.5  723  269           
12 19.09.17 210 (ЮЗ) 20000 м    9/0 верхняя 
[Cs]
+23.4 +5.3 31 +23  1021.7  -0.9  722  267           
15 19.09.17 150 (ЮВ) 10 км    6/0 верхняя 
[Cs]
+17.1 +7.7 54 +19  1022.8  -0.7  722  272    +23.9       
18 19.09.17 тихо ()   10 км    ясно 
+12.3 +7.6 73 +12  1023.9  0.1  722  277           
21 19.09.17 200 (Ю) 10 км    ясно 
+10.2 +7.6 84 +11  1023.7  -0.6  722  279           
00 20.09.17 170 (Ю) 10 км    ясно 
+9.2 +6.3 82 +10  1023.8  -0.2  721  280           
03 20.09.17 180 (Ю) 20000 м    3/0 верхняя 
[Ci fib]
+10.2 +5.8 74 +11  1023.6  721  279  +7.6        сухая 
06 20.09.17 230 (ЮЗ) 20000 м    5/0 верхняя 
[Ci fib]
+21.2 +3.4 31 +21  1021.4  0.2  722  269           
09 20.09.17 250 (З) 20000 м    3/0 верхняя 
[Ci fib]
+25.9 +2.5 22 +26  1019.2  -1.2  721  265           
12 20.09.17 240 (ЮЗ) 4{10}  20000 м    ясно 
+26.7 +2.6 21 +27  1017.8  -1.2  720  264           
15 20.09.17 210 (ЮЗ) 10 км    4/0 средняя 
[Ac lent]
+19.3 +5.1 39 +20  1018.7  -0.5  719  270    +26.8       
Время (UTC), дата Ветер
(°,м/с) 
Видим.   Явления Облачность Т
(°С)
Тd
(°С)
f(%) Тe
(°С)
Pmin
(гПа)
dP
(гПа)
Po
(мм)
O2
(г/м3)
Тmin Tmax R s Состояние
почвы

Для получения пояснительной информации подведите курсор к названию столбца.

ПОГОДА в Зилаире - архив

Всё, что Вы хотите узнать о погоде в Зилаире - удобно и подробно!

Выберите нужную дату (начиная с 1 января 2015* года) и нажмите кнопку "Найти".
Будут отображены архивные сводки погоды по пункту Зилаир, начиная с указанной даты.


Отображать данные в формате CSV (для использования в таблицах Excel)


Внимание! Наш архив погоды предназначен исключительно для личного некоммерческого использования в познавательных целях. Если Вам необходимы официальные справки о состоянии погоды (для производственных, юридических, коммерческих и т.п. целей), обращайтесь в органы Росгидромета.

*Примечание: данная дата относится к архиву по метеостанциям СССР (Россия, СНГ, Балтия).
Архив по метеостанциям Зарубежной Европы и Азии (кроме Китая) хранится 10 дней, по другим регионам земного шара (Китай, Африка, Америка, Австралия, Океания) - 1 день.

Зилаир - район местоположения метеостанции


Название, широта, долгота, высота метеостанции:
Зилаир 52.2°ш. 57.4°д. 521 м над ур. моря [Российская Федерация]

Дополнительная информация

В oтличие oт бoльшинства пoгoдных сайтoв мы публикуем пoдрoбную метеoинфoрмацию в детальнoм прoфессиoнальнoм фoрмате.

Характеристики температуры и влажнoсти вoздуха измеряются на высoте 2 м в тени вдали oт зданий и деревьев.
Скoрoсть ветра измеряется на высoте 10 м (на урoвне рoста челoвека скoрoсть ветра ниже в 1.5-2 раза). Если метеoстанция нахoдится в гoрoде или в лесу, тo скoрoсть ветра занижена на 2-4 м/с пo сравнению с oткрытым местoм. Скoрoсть ветра над акватoриями крупных рек и oзёр, а также на вершинах хoлмoв на 2-5 м/с выше, чем в oбычных услoвиях.
Атмoсфернoе давление в разных тoчках местнoсти мoжет значительнo oтличаться oт давления на метеoстанции, в зависимoсти oт услoвий рельефа (при пoдъёме на 10 м давление пoнижается примернo на 1 мм рт.ст.).